Location: Newark
(34.6283°N, 36.0776°E)
Time: 18:49:01
(UTC+00:00)

Transit 2A - Visible Passes

Search period start: 18 October 2019 00:00
Search period end: 28 October 2019 00:00
Orbit: 600 x 959 km, 66.7° (Epoch: 17 October)

Date Brightness Start Highest point End Pass type
(mag) Time Alt. Az. Time Alt. Az. Time Alt. Az.
18 Oct 7.9 01:45:54 10° N 01:49:13 21° NE 01:52:31 10° ESE visible
18 Oct 6.3 16:20:48 10° S 16:26:13 45° ESE 16:27:56 34° ENE visible
18 Oct 8.3 18:05:14 10° WSW 18:08:30 21° WNW 18:08:30 21° WNW visible
19 Oct 8.4 01:12:40 10° NNE 01:14:54 14° NE 01:17:09 10° E visible
19 Oct 5.7 02:54:07 10° NW 02:58:18 49° WSW 03:02:33 10° S visible
19 Oct 6.9 15:47:19 10° SSE 15:52:11 29° ESE 15:55:56 14° NE visible
19 Oct 7.6 17:30:18 10° WSW 17:35:15 32° WNW 17:36:30 29° NNW visible
20 Oct 5.4 02:20:40 15° NNW 02:24:15 84° WSW 02:28:39 10° SSE visible
20 Oct 6.9 16:55:40 10° SW 17:01:05 48° WNW 17:04:18 21° N visible
21 Oct 6.0 01:48:49 39° N 01:50:09 58° ENE 01:54:28 10° SE visible
21 Oct 6.2 16:21:18 10° SSW 16:26:56 73° WNW 16:31:56 11° NNE visible
22 Oct 7.2 01:17:01 31° E 01:17:01 31° E 01:20:01 10° SE visible
22 Oct 7.1 02:57:36 15° W 02:58:46 16° WSW 03:01:31 10° SSW visible
22 Oct 6.0 15:47:11 10° SSW 15:52:50 75° ESE 15:57:56 10° NNE visible
22 Oct 8.7 17:33:40 10° W 17:36:23 14° NW 17:39:00 10° NNW visible
23 Oct 6.7 02:25:49 24° SW 02:25:49 24° SW 02:28:31 10° SSW visible
23 Oct 6.3 15:13:20 10° S 15:18:46 49° ESE 15:23:42 10° NE visible
23 Oct 8.3 16:58:07 10° WSW 17:02:05 20° NW 17:05:47 10° N visible
24 Oct 7.6 01:54:00 16° S 01:54:00 16° S 01:55:00 10° S visible
24 Oct 7.8 16:23:04 10° WSW 16:27:50 29° WNW 16:32:12 10° N visible
25 Oct 7.2 15:48:22 10° SW 15:53:38 43° WNW 15:58:26 10° NNE visible
26 Oct 6.5 15:13:57 10° SW 15:19:30 66° WNW 15:24:30 10° NNE visible
27 Oct 8.7 16:26:47 10° WNW 16:28:59 12° NW 16:31:07 10° NNW visible
